Home   Weather   Yorkton   Past weeks

Flag for Canada Past Weather in Yorkton, Saskatchewan, Canada — Yesterday and Last 2 Weeks

Now
43 °F

Clear.


Feels Like: 38 °F
Forecast: 38 / 65 °F
Wind: 8 mph from West

Location: Yorkton

Current Time: Sep 27, 2016 at 1:10:33 AM

Latest Report: Sep 27, 2016 at 12:00 AM


Visibility: 9 mi

Pressure: 30.06 "Hg (28.25 "Hg at 505m altitude)

Humidity: 81%

Dew Point: 37 °F

Location of YorktonLocation

Past Weather in Yorkton — Graph

°F

Yorkton Temperature Yesterday

Maximum temperature yesterday: 63 °F (at 3:00 PM)
Minimum temperature yesterday: 37 °F (at 5:00 AM)
Average temperature yesterday: 49 °F

High & Low Weather Summary for the Past Weeks

 TemperatureHumidityPressure
High75 °F (Sep 17, 3:54 PM)100% (Sep 21, 8:00 AM)30.35 "Hg (Sep 21, 8:00 AM)
Low36 °F (Sep 22, 3:58 AM)26% (Sep 16, 3:00 PM)29.41 "Hg (Sep 18, 10:00 AM)
Average52 °F70%30.01 "Hg
* Reported Sep 12 12:00 AM — Sep 27 12:00 AM, Yorkton, Weather by CustomWeather, © 2016

Note: Actual official high and low records may vary slightly from our data, if they occured in-between our weather recording intervals... More about our weather records

Advertising

Yorkton Weather History for the Previous 24 Hours

Scroll right to see more
 ConditionsComfort  
Time TempWeatherWind HumidityBarometerVisibility
12:00 AM
Tue, Sep 27
43 °FClear.8 mph81%30.06 "Hg9 mi
11:00 PM
Mon, Sep 26
45 °FClear.7 mph76%30.07 "Hg9 mi
10:00 PM45 °FClear.9 mph76%30.08 "Hg9 mi
9:00 PM46 °FClear.9 mph71%30.09 "Hg9 mi
8:00 PM48 °FClear.8 mph66%30.09 "Hg9 mi
7:00 PM52 °FClear.8 mph58%30.09 "Hg9 mi
6:00 PM57 °FSunny.8 mph48%30.09 "Hg9 mi
5:00 PM61 °FSunny.12 mph39%30.10 "Hg9 mi
4:00 PM63 °FSunny.15 mph34%30.10 "Hg9 mi
3:00 PM63 °FSunny.21 mph34%30.11 "Hg9 mi
2:00 PM61 °FSunny.18 mph34%30.11 "Hg9 mi
1:00 PM59 °FSunny.22 mph39%30.12 "Hg9 mi
11:00 AM55 °FSunny.17 mph47%30.13 "Hg9 mi
10:00 AM52 °FSunny.18 mph54%30.14 "Hg9 mi
9:00 AM48 °FSunny.17 mph66%30.15 "Hg9 mi
8:00 AM43 °FSunny.9 mph81%30.16 "Hg9 mi
7:00 AM39 °FSunny.12 mph87%30.13 "Hg9 mi
6:00 AM37 °FClear.9 mph87%30.13 "Hg9 mi
5:00 AM37 °FClear.8 mph87%30.11 "Hg9 mi
4:00 AM39 °FClear.9 mph87%30.11 "Hg9 mi
3:00 AM43 °FClear.9 mph81%30.11 "Hg9 mi
2:00 AM43 °FClear.12 mph76%30.10 "Hg9 mi
1:00 AM45 °FClear.10 mph71%30.10 "Hg9 mi
Weather by CustomWeather, © 2016

See weather overviewHow to use our weather pages